TimeEDT,TemperatureF,Dew PointF,Humidity,Sea Level PressureIn,VisibilityMPH,Wind Direction,Wind SpeedMPH,Gust SpeedMPH,PrecipitationIn,Events,Conditions,WindDirDegrees,DateUTC
12:54 AM,46.9,25.0,42,29.77,10.0,Variable,5.8,-,N/A,,Overcast,0,2013-03-21 04:54:00
2:54 AM,45.0,24.1,44,29.75,10.0,WNW,8.1,-,N/A,,Overcast,290,2013-03-21 06:54:00
3:54 AM,41.0,26.1,55,29.74,10.0,NNW,6.9,-,N/A,,Clear,330,2013-03-21 07:54:00
4:54 AM,39.9,24.1,53,29.75,10.0,WNW,8.1,-,N/A,,Overcast,300,2013-03-21 08:54:00
5:54 AM,37.9,23.0,55,29.77,10.0,NNW,12.7,21.9,N/A,,Overcast,340,2013-03-21 09:54:00
6:54 AM,35.1,19.0,52,29.79,10.0,NW,9.2,17.3,N/A,,Partly Cloudy,320,2013-03-21 10:54:00
7:54 AM,34.0,17.1,50,29.81,10.0,WNW,10.4,-,N/A,,Clear,300,2013-03-21 11:54:00
8:54 AM,36.0,17.1,46,29.83,10.0,NW,10.4,19.6,N/A,,Clear,310,2013-03-21 12:54:00
9:54 AM,37.9,14.0,38,29.82,10.0,NW,13.8,19.6,N/A,,Clear,320,2013-03-21 13:54:00
10:54 AM,39.0,12.0,33,29.83,10.0,WNW,11.5,21.9,N/A,,Clear,300,2013-03-21 14:54:00
11:54 AM,39.9,14.0,35,29.82,10.0,NW,9.2,20.7,N/A,,Clear,310,2013-03-21 15:54:00
12:54 PM,42.1,12.9,31,29.82,10.0,West,15.0,19.6,N/A,,Clear,280,2013-03-21 16:54:00
1:54 PM,43.0,12.9,30,29.81,10.0,West,13.8,20.7,N/A,,Scattered Clouds,280,2013-03-21 17:54:00
2:54 PM,41.0,10.0,28,29.80,10.0,WNW,12.7,23.0,N/A,,Overcast,290,2013-03-21 18:54:00
3:54 PM,42.1,12.0,29,29.81,10.0,WNW,16.1,21.9,N/A,,Overcast,290,2013-03-21 19:54:00
4:54 PM,43.0,10.9,27,29.82,10.0,NW,15.0,28.8,N/A,,Mostly Cloudy,310,2013-03-21 20:54:00
5:54 PM,39.9,10.0,29,29.85,10.0,NW,15.0,25.3,N/A,,Partly Cloudy,310,2013-03-21 21:54:00
6:54 PM,37.0,9.0,31,29.88,10.0,NNW,13.8,24.2,N/A,,Clear,330,2013-03-21 22:54:00
7:54 PM,35.1,9.0,34,29.91,10.0,NW,12.7,18.4,N/A,,Clear,310,2013-03-21 23:54:00
8:54 PM,34.0,9.0,35,29.94,10.0,NW,5.8,16.1,N/A,,Clear,310,2013-03-22 00:54:00
9:54 PM,32.0,10.0,40,29.97,10.0,NNW,8.1,-,N/A,,Clear,340,2013-03-22 01:54:00
10:54 PM,30.0,10.9,45,29.97,10.0,NW,5.8,-,N/A,,Clear,320,2013-03-22 02:54:00
11:54 PM,30.0,10.9,45,29.99,10.0,NNW,8.1,-,N/A,,Clear,330,2013-03-22 03:54:00